QPF
0.03 0.02 0.02 0.01 0.02 0.02 0.01 0.01 0.01 0.01 0.01 0.02 0.02 0.01 0.01 0.03 0.02 0.01 0.01 0.02 0.03 0.03 0.05 0.07 0.08 0.08 0.09 0.08 0.09 0.09 0.09 0.08 0.07 0.06 0.04 0.05 0.06 0.07 0.07 0.07 0.06 0.06 0.06
0.02 0.02 0.03 0.02 0.02 0.02 0.02 0.02 0.01 0.01 0.02 0.02 0.03 0.02 0.02 0.02 0.02 0.02 0.02 0.01 0.02 0.03 0.04 0.05 0.06 0.07 0.09 0.09 0.09 0.08 0.07 0.08 0.07 0.06 0.05 0.03 0.03 0.05 0.06 0.07 0.07 0.07 0.06
0.02 0.01 0.02 0.02 0.02 0.02 0.02 0.02 0.03 0.03 0.03 0.03 0.03 0.03 0.03 0.04 0.03 0.02 0.02 0.01 0.01 0.02 0.05 0.05 0.03 0.04 0.06 0.07 0.06 0.05 0.06 0.07 0.06 0.07 0.07 0.05 0.03 0.04 0.05 0.07 0.07 0.06 0.06
0.02 0.03 0.03 0.03 0.02 0.02 0.02 0.03 0.03 0.03 0.02 0.03 0.03 0.03 0.04 0.04 0.04 0.03 0.03 0.02 0.01 0.01 0.03 0.04 0.03 0.04 0.04 0.06 0.06 0.05 0.06 0.07 0.06 0.06 0.06 0.05 0.04 0.03 0.03 0.06 0.07 0.06 0.05
0.05 0.04 0.03 0.03 0.02 0.02 0.03 0.03 0.02 0.02 0.02 0.04 0.03 0.02 0.02 0.04 0.04 0.03 0.03 0.02 0.02 0.01 0.01 0.02 0.03 0.02 0.04 0.06 0.07 0.07 0.07 0.08 0.06 0.05 0.04 0.03 0.03 0.03 0.03 0.04 0.06 0.07 0.05
0.03 0.03 0.02 0.02 0.03 0.04 0.04 0.03 0.03 0.03 0.03 0.03 0.03 0.03 0.03 0.04 0.02 0.02 0.02 0.02 0.03 0.02 0.01 0.01 0.02 0.02 0.03 0.05 0.06 0.07 0.07 0.09 0.08 0.06 0.05 0.05 0.05 0.04 0.04 0.04 0.06 0.08 0.07
0.01 0.02 0.02 0.03 0.04 0.07 0.09 0.05 0.03 0.03 0.04 0.04 0.04 0.04 0.03 0.03 0.03 0.03 0.03 0.03 0.03 0.02 0.02 0.01 0.01 0.02 0.02 0.03 0.03 0.04 0.06 0.07 0.08 0.08 0.07 0.06 0.06 0.07 0.07 0.07 0.06 0.08 0.08
0.02 0.02 0.02 0.03 0.05 0.08 0.09 0.05 0.03 0.03 0.03 0.03 0.03 0.03 0.03 0.03 0.03 0.04 0.04 0.04 0.04 0.03 0.03 0.02 0.01 0.01 0.01 0.01 0.01 0.02 0.03 0.04 0.06 0.07 0.06 0.05 0.05 0.05 0.06 0.06 0.05 0.06 0.07
0.03 0.01 0.02 0.03 0.03 0.03 0.03 0.04 0.06 0.05 0.04 0.03 0.03 0.03 0.03 0.02 0.03 0.04 0.04 0.04 0.04 0.04 0.03 0.02 0.01 0.01 0.02 0.02 0.01 0.02 0.02 0.03 0.05 0.06 0.07 0.06 0.06 0.05 0.04 0.05 0.04 0.05 0.05
0.02 0.02 0.02 0.03 0.03 0.02 0.02 0.03 0.04 0.05 0.04 0.05 0.04 0.03 0.02 0.02 0.02 0.02 0.04 0.04 0.04 0.04 0.03 0.02 0.01 0.02 0.03 0.03 0.03 0.03 0.03 0.03 0.03 0.06 0.07 0.06 0.06 0.05 0.05 0.05 0.06 0.06 0.06
0.04 0.03 0.03 0.03 0.03 0.03 0.03 0.03 0.03 0.04 0.03 0.04 0.04 0.03 0.03 0.02 0.02 0.02 0.02 0.03 0.04 0.03 0.02 0.01 0.01 0.02 0.02 0.03 0.04 0.04 0.04 0.03 0.03 0.04 0.05 0.07 0.06 0.05 0.05 0.06 0.06 0.07 0.08
0.04 0.04 0.03 0.03 0.04 0.04 0.04 0.03 0.03 0.03 0.02 0.03 0.03 0.02 0.02 0.02 0.02 0.02 0.02 0.02 0.02 0.02 0.02 0.01 0.01 0.01 0.01 0.02 0.03 0.04 0.05 0.05 0.05 0.04 0.04 0.04 0.04 0.04 0.04 0.05 0.07 0.07 0.07
0.03 0.05 0.04 0.04 0.04 0.04 0.04 0.03 0.02 0.02 0.02 0.02 0.02 0.02 0.02 0.02 0.01 0.02 0.01 0.01 0.02 0.02 0.02 0.02 0.02 0.01 0.02 0.02 0.04 0.06 0.06 0.07 0.06 0.05 0.04 0.03 0.03 0.03 0.04 0.05 0.07 0.07 0.06
0.04 0.05 0.06 0.07 0.07 0.04 0.03 0.03 0.03 0.02 0.02 0.03 0.04 0.02 0.02 0.02 0.01 0.01 0.01 0.01 0.01 0.01 0.01 0.01 0.01 0.01 0.02 0.03 0.04 0.04 0.03 0.04 0.03 0.03 0.03 0.04 0.05 0.06 0.05 0.06 0.06 0.06 0.06
0.05 0.05 0.06 0.08 0.08 0.06 0.04 0.04 0.04 0.04 0.04 0.03 0.04 0.03 0.03 0.02 0.02 0.01 0.01 0.01 0.01 0.01 0.01 0.01 0.01 0.01 0.02 0.03 0.04 0.03 0.02 0.03 0.03 0.04 0.04 0.04 0.05 0.05 0.05 0.05 0.05 0.05 0.06
0.03 0.03 0.03 0.03 0.02 0.02 0.01 0.01 0.02 0.03 0.03 0.04 0.06 0.06 0.05 0.03 0.02 0.01 0.02 0.02 0.02 0.01 0.01 0.01 0.00 0.01 0.02 0.03 0.04 0.03 0.03 0.03 0.03 0.03 0.04 0.04 0.04 0.04 0.04 0.04 0.04 0.05 0.05
0.02 0.02 0.02 0.02 0.01 0.01 0.01 0.01 0.01 0.02 0.04 0.05 0.06 0.06 0.06 0.05 0.04 0.03 0.02 0.02 0.02 0.02 0.02 0.01 0.01 0.01 0.02 0.03 0.04 0.05 0.04 0.03 0.02 0.01 0.02 0.03 0.04 0.04 0.04 0.04 0.03 0.04 0.05
0.02 0.02 0.03 0.03 0.03 0.02 0.02 0.02 0.02 0.02 0.04 0.06 0.07 0.08 0.10 0.11 0.08 0.06 0.04 0.02 0.02 0.03 0.03 0.02 0.02 0.02 0.02 0.03 0.04 0.05 0.04 0.04 0.02 0.01 0.01 0.01 0.02 0.03 0.04 0.04 0.04 0.03 0.03
0.03 0.03 0.03 0.04 0.04 0.04 0.04 0.03 0.03 0.03 0.02 0.03 0.04 0.05 0.08 0.11 0.09 0.08 0.05 0.04 0.05 0.04 0.04 0.02 0.03 0.04 0.03 0.02 0.03 0.04 0.04 0.03 0.02 0.01 0.01 0.01 0.01 0.02 0.03 0.04 0.04 0.03 0.03
0.10 0.07 0.06 0.05 0.05 0.05 0.06 0.05 0.04 0.03 0.03 0.02 0.03 0.03 0.05 0.06 0.07 0.09 0.09 0.09 0.07 0.06 0.04 0.03 0.02 0.03 0.03 0.02 0.02 0.02 0.03 0.04 0.03 0.02 0.01 0.01 0.01 0.01 0.02 0.04 0.05 0.06 0.06
0.10 0.09 0.09 0.07 0.06 0.05 0.05 0.06 0.06 0.05 0.05 0.03 0.03 0.03 0.03 0.05 0.05 0.06 0.07 0.09 0.11 0.11 0.09 0.06 0.04 0.02 0.02 0.02 0.02 0.02 0.02 0.03 0.04 0.03 0.02 0.01 0.01 0.01 0.01 0.02 0.04 0.06 0.07
0.10 0.10 0.11 0.09 0.08 0.07 0.07 0.07 0.08 0.06 0.05 0.04 0.03 0.03 0.04 0.04 0.04 0.05 0.06 0.07 0.08 0.08 0.09 0.09 0.07 0.05 0.03 0.03 0.03 0.03 0.02 0.02 0.03 0.03 0.04 0.03 0.02 0.02 0.01 0.01 0.03 0.04 0.05
0.10 0.10 0.07 0.05 0.03 0.03 0.04 0.04 0.04 0.05 0.04 0.05 0.04 0.02 0.02 0.02 0.03 0.03 0.04 0.04 0.05 0.06 0.05 0.06 0.06 0.05 0.04 0.03 0.03 0.02 0.01 0.01 0.01 0.02 0.04 0.04 0.04 0.03 0.02 0.02 0.03 0.04 0.03
0.04 0.04 0.03 0.03 0.02 0.02 0.03 0.03 0.03 0.05 0.05 0.06 0.04 0.04 0.03 0.02 0.02 0.03 0.04 0.03 0.04 0.05 0.05 0.05 0.03 0.03 0.03 0.03 0.03 0.03 0.02 0.02 0.02 0.02 0.04 0.04 0.04 0.04 0.04 0.04 0.05 0.05 0.05
0.02 0.02 0.02 0.02 0.02 0.02 0.03 0.05 0.06 0.06 0.06 0.05 0.05 0.05 0.04 0.03 0.05 0.08 0.09 0.08 0.06 0.04 0.05 0.04 0.02 0.02 0.03 0.05 0.06 0.06 0.04 0.03 0.03 0.03 0.03 0.04 0.05 0.05 0.06 0.07 0.07 0.05 0.04
0.03 0.02 0.02 0.02 0.03 0.03 0.04 0.05 0.06 0.06 0.04 0.03 0.03 0.03 0.04 0.06 0.09 0.10 0.07 0.07 0.06 0.06 0.06 0.05 0.04 0.02 0.03 0.03 0.05 0.06 0.07 0.07 0.06 0.06 0.05 0.04 0.03 0.04 0.05 0.05 0.05 0.04 0.03
MSLP
1014.06 1013.89 1013.64 1013.35 1013.04 1012.76 1012.53 1012.35 1012.21 1012.09 1011.97 1011.82 1011.61 1011.36 1011.07 1010.75 1010.44 1010.15 1009.89 1009.66 1009.47 1009.30 1009.16 1009.04 1008.95 1008.92 1008.94 1009.04 1009.20 1009.42 1009.68 1009.95 1010.21 1010.44 1010.64 1010.82 1011.00 1011.20 1011.44 1011.74 1012.11 1012.55 1013.06
1013.65 1013.45 1013.19 1012.90 1012.62 1012.37 1012.17 1012.02 1011.92 1011.84 1011.75 1011.62 1011.43 1011.19 1010.88 1010.54 1010.18 1009.82 1009.49 1009.19 1008.93 1008.72 1008.54 1008.39 1008.30 1008.26 1008.27 1008.35 1008.50 1008.70 1008.93 1009.19 1009.44 1009.67 1009.89 1010.09 1010.28 1010.49 1010.73 1011.04 1011.41 1011.86 1012.37
1013.19 1012.96 1012.71 1012.45 1012.21 1012.00 1011.85 1011.74 1011.68 1011.63 1011.56 1011.46 1011.29 1011.04 1010.73 1010.36 1009.95 1009.54 1009.14 1008.77 1008.45 1008.18 1007.96 1007.79 1007.68 1007.62 1007.62 1007.69 1007.80 1007.97 1008.17 1008.40 1008.63 1008.86 1009.09 1009.30 1009.52 1009.76 1010.03 1010.36 1010.75 1011.22 1011.75
1012.71 1012.48 1012.24 1012.02 1011.83 1011.67 1011.57 1011.50 1011.47 1011.44 1011.40 1011.31 1011.15 1010.92 1010.61 1010.22 1009.79 1009.34 1008.90 1008.48 1008.10 1007.79 1007.53 1007.34 1007.20 1007.12 1007.09 1007.12 1007.19 1007.31 1007.46 1007.63 1007.83 1008.04 1008.26 1008.49 1008.74 1009.01 1009.32 1009.68 1010.11 1010.60 1011.15
1012.27 1012.03 1011.83 1011.65 1011.51 1011.41 1011.34 1011.31 1011.30 1011.29 1011.26 1011.19 1011.06 1010.85 1010.55 1010.18 1009.76 1009.30 1008.83 1008.38 1007.98 1007.63 1007.34 1007.12 1006.95 1006.84 1006.77 1006.74 1006.75 1006.79 1006.87 1006.97 1007.11 1007.28 1007.47 1007.70 1007.96 1008.26 1008.60 1009.00 1009.46 1009.97 1010.54
1011.92 1011.70 1011.52 1011.39 1011.30 1011.24 1011.21 1011.20 1011.21 1011.21 1011.20 1011.15 1011.04 1010.87 1010.62 1010.29 1009.90 1009.46 1009.00 1008.55 1008.14 1007.77 1007.46 1007.21 1007.01 1006.85 1006.73 1006.63 1006.56 1006.51 1006.48 1006.49 1006.54 1006.64 1006.78 1006.97 1007.22 1007.52 1007.88 1008.30 1008.77 1009.30 1009.88
1011.74 1011.54 1011.40 1011.31 1011.26 1011.24 1011.24 1011.25 1011.26 1011.27 1011.27 1011.25 1011.18 1011.06 1010.86 1010.59 1010.26 1009.86 1009.44 1009.02 1008.61 1008.23 1007.91 1007.63 1007.40 1007.19 1007.01 1006.83 1006.67 1006.51 1006.37 1006.26 1006.20 1006.20 1006.26 1006.38 1006.58 1006.86 1007.19 1007.59 1008.06 1008.58 1009.14
1011.80 1011.63 1011.53 1011.48 1011.46 1011.47 1011.49 1011.51 1011.53 1011.55 1011.56 1011.57 1011.54 1011.47 1011.34 1011.14 1010.87 1010.54 1010.16 1009.76 1009.37 1009.00 1008.66 1008.36 1008.09 1007.84 1007.59 1007.34 1007.08 1006.81 1006.55 1006.32 1006.13 1006.00 1005.95 1005.98 1006.10 1006.29 1006.56 1006.91 1007.32 1007.79 1008.32
1012.15 1012.02 1011.95 1011.94 1011.96 1011.98 1012.01 1012.04 1012.06 1012.09 1012.12 1012.14 1012.16 1012.14 1012.07 1011.93 1011.72 1011.44 1011.11 1010.74 1010.36 1009.99 1009.64 1009.32 1009.02 1008.72 1008.42 1008.10 1007.75 1007.38 1007.01 1006.65 1006.34 1006.08 1005.89 1005.79 1005.78 1005.86 1006.02 1006.26 1006.58 1006.97 1007.42
1012.78 1012.70 1012.68 1012.70 1012.73 1012.78 1012.82 1012.84 1012.87 1012.90 1012.94 1012.98 1013.02 1013.04 1013.01 1012.92 1012.75 1012.50 1012.20 1011.84 1011.47 1011.10 1010.74 1010.40 1010.07 1009.74 1009.39 1009.01 1008.60 1008.15 1007.68 1007.21 1006.77 1006.38 1006.05 1005.80 1005.64 1005.57 1005.58 1005.68 1005.86 1006.13 1006.49
1013.66 1013.63 1013.64 1013.68 1013.74 1013.79 1013.83 1013.86 1013.89 1013.92 1013.96 1014.02 1014.06 1014.10 1014.08 1014.01 1013.86 1013.62 1013.32 1012.97 1012.59 1012.21 1011.84 1011.48 1011.13 1010.78 1010.40 1009.98 1009.52 1009.01 1008.46 1007.90 1007.35 1006.83 1006.37 1005.97 1005.64 1005.40 1005.24 1005.17 1005.20 1005.33 1005.56
1014.67 1014.69 1014.73 1014.79 1014.85 1014.91 1014.95 1014.98 1015.01 1015.04 1015.08 1015.13 1015.18 1015.20 1015.19 1015.10 1014.94 1014.70 1014.39 1014.02 1013.63 1013.23 1012.85 1012.47 1012.11 1011.74 1011.34 1010.90 1010.41 1009.86 1009.26 1008.62 1007.98 1007.36 1006.77 1006.22 1005.74 1005.33 1004.99 1004.74 1004.60 1004.58 1004.68
1015.72 1015.77 1015.82 1015.89 1015.95 1016.01 1016.05 1016.08 1016.11 1016.13 1016.17 1016.21 1016.24 1016.25 1016.21 1016.10 1015.92 1015.65 1015.32 1014.93 1014.52 1014.11 1013.71 1013.33 1012.96 1012.58 1012.17 1011.71 1011.20 1010.62 1009.97 1009.29 1008.58 1007.87 1007.17 1006.51 1005.89 1005.32 1004.82 1004.41 1004.10 1003.93 1003.90
1016.67 1016.74 1016.81 1016.87 1016.93 1016.98 1017.02 1017.05 1017.07 1017.10 1017.13 1017.15 1017.17 1017.15 1017.09 1016.95 1016.74 1016.44 1016.08 1015.68 1015.26 1014.84 1014.43 1014.04 1013.66 1013.27 1012.86 1012.38 1011.85 1011.24 1010.57 1009.85 1009.08 1008.31 1007.54 1006.78 1006.06 1005.37 1004.74 1004.19 1003.73 1003.41 1003.25
1017.48 1017.55 1017.61 1017.66 1017.71 1017.75 1017.79 1017.81 1017.84 1017.86 1017.89 1017.91 1017.90 1017.87 1017.78 1017.62 1017.38 1017.07 1016.70 1016.29 1015.86 1015.44 1015.03 1014.64 1014.26 1013.86 1013.42 1012.93 1012.37 1011.74 1011.04 1010.28 1009.49 1008.67 1007.85 1007.04 1006.25 1005.48 1004.76 1004.09 1003.52 1003.07 1002.78
1018.10 1018.17 1018.22 1018.26 1018.29 1018.32 1018.35 1018.38 1018.41 1018.43 1018.46 1018.47 1018.46 1018.41 1018.30 1018.13 1017.88 1017.57 1017.20 1016.80 1016.38 1015.97 1015.57 1015.18 1014.78 1014.37 1013.91 1013.40 1012.81 1012.15 1011.42 1010.64 1009.82 1008.98 1008.14 1007.31 1006.49 1005.68 1004.89 1004.15 1003.49 1002.93 1002.52
1018.58 1018.64 1018.67 1018.70 1018.72 1018.75 1018.78 1018.80 1018.83 1018.86 1018.88 1018.89 1018.87 1018.82 1018.71 1018.54 1018.30 1018.00 1017.65 1017.27 1016.87 1016.48 1016.09 1015.70 1015.29 1014.86 1014.38 1013.83 1013.21 1012.51 1011.76 1010.96 1010.13 1009.29 1008.46 1007.63 1006.80 1005.99 1005.18 1004.40 1003.67 1003.02 1002.49
1018.99 1019.04 1019.06 1019.09 1019.11 1019.13 1019.15 1019.17 1019.20 1019.22 1019.24 1019.25 1019.23 1019.18 1019.08 1018.92 1018.70 1018.42 1018.09 1017.74 1017.37 1016.99 1016.62 1016.22 1015.81 1015.36 1014.85 1014.27 1013.62 1012.90 1012.12 1011.31 1010.48 1009.66 1008.84 1008.03 1007.23 1006.43 1005.63 1004.83 1004.05 1003.31 1002.68
1019.40 1019.46 1019.49 1019.51 1019.54 1019.56 1019.57 1019.59 1019.61 1019.62 1019.63 1019.62 1019.60 1019.54 1019.44 1019.29 1019.09 1018.84 1018.54 1018.22 1017.87 1017.52 1017.15 1016.76 1016.34 1015.87 1015.34 1014.74 1014.06 1013.32 1012.54 1011.72 1010.91 1010.10 1009.31 1008.54 1007.78 1007.01 1006.22 1005.41 1004.59 1003.79 1003.05
1019.88 1019.95 1020.00 1020.04 1020.07 1020.09 1020.10 1020.10 1020.10 1020.08 1020.07 1020.04 1020.00 1019.93 1019.83 1019.68 1019.49 1019.26 1018.98 1018.68 1018.36 1018.01 1017.65 1017.27 1016.84 1016.36 1015.82 1015.21 1014.53 1013.78 1013.00 1012.20 1011.41 1010.63 1009.88 1009.14 1008.42 1007.67 1006.90 1006.09 1005.25 1004.39 1003.56
1020.43 1020.53 1020.62 1020.68 1020.72 1020.74 1020.74 1020.71 1020.67 1020.62 1020.57 1020.50 1020.43 1020.34 1020.22 1020.07 1019.89 1019.66 1019.39 1019.10 1018.78 1018.44 1018.08 1017.70 1017.27 1016.79 1016.25 1015.65 1014.97 1014.25 1013.49 1012.72 1011.95 1011.21 1010.49 1009.79 1009.09 1008.38 1007.62 1006.82 1005.95 1005.05 1004.15
1021.02 1021.17 1021.29 1021.39 1021.44 1021.46 1021.43 1021.37 1021.29 1021.19 1021.08 1020.97 1020.86 1020.74 1020.60 1020.43 1020.23 1019.99 1019.72 1019.42 1019.10 1018.76 1018.39 1018.00 1017.58 1017.11 1016.58 1016.00 1015.36 1014.66 1013.94 1013.21 1012.48 1011.77 1011.08 1010.41 1009.74 1009.05 1008.31 1007.51 1006.64 1005.71 1004.76
1021.58 1021.79 1021.96 1022.09 1022.15 1022.16 1022.11 1022.01 1021.88 1021.73 1021.57 1021.40 1021.24 1021.08 1020.91 1020.72 1020.50 1020.25 1019.96 1019.64 1019.30 1018.94 1018.56 1018.16 1017.73 1017.27 1016.77 1016.22 1015.62 1014.97 1014.30 1013.61 1012.93 1012.25 1011.60 1010.95 1010.30 1009.63 1008.91 1008.12 1007.26 1006.33 1005.35
1022.06 1022.33 1022.54 1022.69 1022.77 1022.77 1022.70 1022.56 1022.38 1022.17 1021.96 1021.75 1021.55 1021.35 1021.15 1020.94 1020.69 1020.41 1020.09 1019.74 1019.37 1018.98 1018.57 1018.15 1017.72 1017.27 1016.79 1016.27 1015.72 1015.13 1014.51 1013.87 1013.23 1012.60 1011.97 1011.35 1010.73 1010.08 1009.38 1008.62 1007.79 1006.89 1005.93
1022.41 1022.72 1022.97 1023.15 1023.23 1023.22 1023.13 1022.96 1022.74 1022.50 1022.24 1022.00 1021.77 1021.55 1021.32 1021.08 1020.81 1020.50 1020.15 1019.76 1019.34 1018.91 1018.47 1018.02 1017.57 1017.12 1016.65 1016.17 1015.66 1015.12 1014.55 1013.96 1013.37 1012.77 1012.18 1011.59 1011.00 1010.38 1009.73 1009.01 1008.24 1007.39 1006.49
1022.62 1022.96 1023.24 1023.43 1023.52 1023.51 1023.40 1023.21 1022.97 1022.70 1022.43 1022.17 1021.93 1021.69 1021.45 1021.19 1020.90 1020.55 1020.16 1019.73 1019.26 1018.77 1018.28 1017.79 1017.31 1016.85 1016.38 1015.92 1015.44 1014.94 1014.42 1013.88 1013.33 1012.77 1012.22 1011.66 1011.11 1010.54 1009.94 1009.30 1008.61 1007.85 1007.04
Thickness
5761 5761 5761 5760 5760 5759 5759 5758 5757 5757 5756 5756 5756 5755 5754 5754 5753 5753 5753 5752 5752 5751 5751 5749 5748 5746 5744 5743 5742 5741 5740 5738 5737 5736 5734 5733 5731 5730 5729 5728 5727 5726 5725
5762 5761 5760 5760 5760 5760 5759 5759 5758 5757 5756 5756 5756 5755 5755 5754 5753 5753 5752 5752 5752 5751 5750 5749 5748 5747 5745 5744 5742 5741 5740 5739 5738 5736 5735 5734 5732 5731 5729 5728 5727 5726 5725
5763 5762 5761 5760 5761 5760 5759 5759 5758 5757 5756 5756 5755 5755 5754 5754 5753 5753 5752 5751 5751 5750 5749 5749 5747 5747 5746 5744 5743 5742 5741 5739 5738 5736 5735 5734 5732 5731 5730 5729 5727 5726 5725
5763 5762 5761 5761 5761 5760 5760 5759 5758 5756 5755 5754 5753 5754 5753 5753 5753 5752 5751 5751 5750 5749 5748 5748 5747 5746 5745 5744 5743 5742 5741 5740 5738 5737 5735 5734 5733 5732 5730 5729 5728 5726 5726
5763 5762 5761 5760 5760 5760 5759 5759 5757 5755 5753 5752 5752 5752 5752 5751 5751 5751 5750 5749 5749 5748 5747 5747 5746 5746 5745 5744 5743 5742 5741 5740 5738 5737 5736 5734 5733 5732 5731 5729 5728 5727 5726
5763 5762 5761 5760 5760 5759 5758 5757 5755 5754 5753 5752 5752 5751 5750 5750 5750 5749 5749 5748 5747 5747 5746 5746 5745 5744 5743 5742 5741 5741 5740 5739 5738 5737 5735 5734 5733 5732 5731 5729 5728 5727 5726
5762 5761 5760 5759 5759 5757 5756 5756 5754 5752 5751 5750 5747 5745 5746 5748 5748 5747 5747 5746 5746 5745 5745 5744 5743 5743 5741 5740 5740 5739 5738 5738 5737 5736 5734 5733 5732 5731 5730 5729 5728 5727 5726
5761 5760 5759 5758 5758 5756 5755 5754 5752 5750 5748 5748 5744 5740 5736 5739 5742 5746 5745 5745 5744 5744 5743 5742 5742 5741 5740 5739 5738 5737 5737 5736 5735 5734 5733 5732 5731 5730 5729 5729 5728 5726 5725
5760 5759 5758 5757 5756 5755 5753 5752 5751 5749 5745 5745 5745 5740 5733 5730 5734 5739 5741 5742 5741 5741 5740 5740 5739 5738 5737 5736 5735 5735 5734 5733 5733 5732 5730 5729 5728 5728 5727 5727 5726 5725 5723
5759 5758 5757 5756 5755 5754 5752 5751 5750 5748 5746 5742 5741 5740 5738 5736 5730 5729 5734 5737 5738 5738 5737 5737 5736 5735 5734 5733 5733 5732 5732 5731 5730 5729 5728 5727 5726 5725 5725 5724 5723 5723 5722
5758 5756 5755 5754 5753 5751 5750 5749 5748 5747 5745 5742 5739 5738 5735 5733 5731 5727 5725 5729 5732 5734 5734 5734 5733 5732 5732 5731 5730 5729 5729 5728 5727 5726 5725 5724 5723 5723 5722 5721 5721 5720 5719
5755 5755 5753 5752 5751 5749 5748 5747 5746 5745 5744 5741 5739 5737 5734 5731 5728 5725 5723 5723 5724 5728 5730 5730 5730 5729 5728 5727 5726 5726 5725 5725 5724 5723 5722 5721 5720 5720 5719 5718 5718 5717 5716
5753 5752 5752 5750 5749 5748 5746 5745 5744 5743 5741 5740 5738 5736 5734 5732 5730 5727 5723 5721 5720 5723 5724 5726 5726 5725 5725 5724 5723 5722 5721 5721 5720 5719 5718 5717 5717 5716 5715 5715 5714 5713 5713
5752 5751 5750 5748 5747 5745 5744 5743 5741 5740 5739 5738 5736 5734 5732 5731 5729 5727 5723 5719 5715 5716 5718 5719 5721 5721 5720 5720 5719 5718 5717 5717 5716 5715 5714 5713 5712 5712 5711 5710 5710 5709 5709
5751 5749 5748 5746 5744 5742 5741 5739 5738 5737 5736 5735 5734 5732 5730 5729 5727 5725 5723 5720 5714 5710 5711 5714 5715 5717 5716 5715 5715 5714 5713 5712 5712 5711 5710 5709 5708 5708 5707 5706 5706 5705 5704
5748 5746 5744 5742 5740 5738 5737 5736 5734 5734 5732 5731 5730 5729 5727 5726 5724 5722 5720 5717 5715 5711 5708 5711 5711 5712 5712 5712 5710 5709 5708 5708 5707 5706 5705 5705 5704 5704 5703 5702 5702 5701 5700
5745 5742 5740 5738 5736 5734 5733 5732 5730 5729 5728 5727 5726 5725 5723 5722 5720 5718 5717 5714 5712 5709 5706 5707 5707 5707 5706 5706 5706 5704 5703 5702 5702 5701 5700 5700 5699 5699 5698 5698 5697 5696 5696
5742 5740 5737 5735 5732 5730 5728 5727 5725 5724 5723 5721 5721 5720 5719 5717 5715 5714 5712 5711 5709 5707 5704 5702 5701 5701 5700 5700 5700 5699 5699 5698 5697 5696 5695 5695 5694 5693 5693 5693 5692 5691 5691
5737 5735 5733 5730 5728 5726 5723 5722 5720 5719 5718 5717 5716 5714 5714 5712 5710 5709 5707 5706 5705 5704 5701 5698 5696 5695 5694 5694 5693 5693 5693 5691 5692 5691 5690 5689 5689 5688 5687 5687 5687 5686 5686
5733 5730 5728 5726 5723 5721 5719 5717 5715 5713 5713 5712 5711 5710 5709 5708 5707 5705 5704 5702 5700 5698 5696 5693 5691 5690 5689 5688 5686 5685 5684 5684 5684 5685 5684 5683 5683 5682 5682 5681 5681 5680 5680
5729 5725 5723 5720 5718 5716 5714 5711 5709 5708 5707 5706 5705 5704 5704 5704 5703 5701 5700 5697 5695 5692 5690 5688 5686 5684 5683 5681 5681 5680 5678 5677 5677 5677 5677 5677 5677 5676 5675 5675 5674 5674 5673
5724 5720 5717 5714 5712 5711 5709 5706 5704 5702 5701 5699 5698 5698 5697 5697 5697 5695 5694 5693 5691 5688 5685 5682 5680 5679 5678 5678 5676 5675 5672 5670 5670 5672 5670 5671 5670 5669 5669 5668 5668 5668 5667
5718 5715 5712 5709 5706 5705 5704 5701 5698 5695 5693 5692 5691 5690 5690 5690 5689 5688 5688 5687 5686 5684 5682 5679 5677 5675 5674 5674 5672 5670 5667 5666 5665 5666 5663 5664 5663 5662 5662 5663 5662 5661 5660
5713 5710 5707 5704 5701 5699 5697 5695 5692 5689 5686 5684 5684 5683 5683 5682 5682 5680 5680 5680 5679 5678 5677 5675 5674 5673 5672 5671 5668 5667 5664 5661 5659 5658 5657 5656 5656 5655 5655 5655 5655 5654 5653
5708 5705 5702 5699 5695 5693 5691 5688 5685 5681 5679 5678 5678 5677 5676 5675 5674 5673 5672 5671 5671 5671 5671 5671 5670 5668 5666 5665 5663 5660 5657 5654 5653 5652 5650 5649 5649 5648 5647 5647 5647 5646 5645
5703 5700 5696 5693 5690 5688 5685 5681 5678 5675 5672 5671 5671 5670 5669 5668 5666 5665 5665 5664 5664 5664 5664 5664 5664 5662 5660 5659 5657 5655 5653 5649 5647 5645 5644 5642 5641 5640 5639 5640 5639 5638 5637